Regional Weather Roundup
Issued by NWS

Home | Current Version | Previous Version | Text Only | Print | Product List | Glossary On
Versions: 1 2 3 4 5 6 7 8 9 10 11 12 13 14 15 16 17 18 19 20 21 22 23 24 25 26 27 28 29 30 31 32 33 34 35 36 37 38 39 40 41 42 43 44 45 46 47 48 49 50
000
ASUS43 KDTX 252201
RWRMI
MICHIGAN HOURLY REGIONAL WEATHER ROUNDUP
NATIONAL WEATHER SERVICE DETROIT/PONTIAC MI
600 PM EDT MON JUL 25 2016

NOTE: "FAIR" INDICATES FEW OR NO CLOUDS BELOW 12,000 FEET WITH NO
SIGNIFICANT WEATHER AND/OR OBSTRUCTION TO VISIBILITY.

MIZ047>049-052>055-059>063-066>070-074>076-081>083-252300-
SOUTHEAST LOWER MICHIGAN

CITY           SKY/WX    TMP DP  RH WIND       PRES   REMARKS
ADRIAN         SUNNY     87  65  47 NW12      29.94S
ALMA           SUNNY     85  60  42 MISG      29.94R
ANN ARBOR      SUNNY     88  61  40 NW14G21   29.92S
BAD AXE        MOSUNNY   85  56  37 NW14G21   29.90S
CARO           MOSUNNY   88  61  40 W12G20    29.90S
DETROIT CITY   MOSUNNY   89  63  41 NW10      29.89S HX  90
DETROIT        MOSUNNY   91  62  37 W14G21    29.90F HX  91
FLINT          SUNNY     90  61  37 W16       29.92S HX  90
GROSSE ILE     MOSUNNY   89  64  43 NW10      29.89S
HILLSDALE      MOSUNNY   83  65  54 NW7       29.97S
HOWELL         MOSUNNY   86  59  39 W10G18    29.94S

CITY           SKY/WX    TMP DP  RH WIND       PRES   REMARKS
JACKSON        MOSUNNY   85  64  49 NW12      29.95S
LAMBERTVILLE   MOSUNNY   88  67  50 W10G16    29.93S HX  91
LANSING        SUNNY     85  62  46 W10       29.95S
LAPEER         FAIR      87  59  39 NW7       29.91S
MASON          SUNNY     86  63  45 NW9G17    29.95R
MONROE         MOSUNNY   87  70  56 W8        29.90S HX  91
MT. CLEMENS    MOSUNNY   88  64  44 NW12      29.87F
PONTIAC        MOSUNNY   87  63  44 NW14      29.92S
PORT HURON     SUNNY     86  64  48 NW8       29.89S
TRI CITIES     SUNNY     86  62  44 W17       29.92R
MIDLAND        NOT AVBL
TROY           SUNNY     89  57  33 NW13G21   29.92S
SAGINAW HB     SUNNY     88  59  37 W10       29.90S
$$
MIZ043>046-050>051-056>058-064>065-071>073-077>080-252300-
SOUTHWEST LOWER MICHIGAN

CITY           SKY/WX    TMP DP  RH WIND       PRES   REMARKS
BATTLE CREEK   MOSUNNY   82  63  52 NW14      29.98S
BENTON HARBOR  SUNNY     80  63  55 NW7       30.00S
BIG RAPIDS     SUNNY     81  58  46 NW9G17    29.97R
COLDWATER      MOSUNNY   85  64  49 W10       29.97R
FREMONT        FAIR      82  59  45 NW14      29.97R
HOLLAND        SUNNY     79  63  57 W9        30.00S
GRAND RAPIDS   MOSUNNY   85  59  41 W12G21    29.96S
IONIA          FAIR      84  55  36 NW12      29.95R
KALAMAZOO      MOSUNNY   83  61  47 NW10G21   29.98R
LUDINGTON      SUNNY     79  67  66 W6        29.97S
MARSHALL       MOSUNNY   86  64  48 W10       29.95S
MOUNT PLEASANT SUNNY     85  57  38 W9        29.93S
MUSKEGON       MOSUNNY   82  62  50 W9        29.99R
SOUTH HAVEN    SUNNY     77  66  69 W6        29.99F
$$
MIZ016>042-252300-
NORTHERN LOWER MICHIGAN

CITY           SKY/WX    TMP DP  RH WIND       PRES   REMARKS
ALPENA         PTSUNNY   81  56  42 NW15      29.89S
BEAVER ISLAND  SUNNY     76  62  61 NW10G18   29.96R
BELLAIRE       SUNNY     79  59  50 NW3       29.95S
CADILLAC       MOSUNNY   81  59  47 NW14      29.97S
CHARLEVOIX     MOSUNNY   78  63  59 W8        29.98R
FRANKFORT      SUNNY     78  64  63 SW5       29.96S
GAYLORD        MOSUNNY   76  58  53 NW10G22   29.96R
GRAYLING       MOSUNNY   79  60  51 NW12G18   29.97R
HARBOR SPRINGS PTSUNNY   74  67  77 W8        29.94R
HOUGHTON LAKE  SUNNY     81  57  43 NW14      29.96R
MANISTEE       SUNNY     81  63  54 W8        29.96S
OSCODA         MOSUNNY   85  54  35 NW16G23   29.87R
PELLSTON       SUNNY     78  59  51 NW15G25   29.94R
ROGERS CITY    MOSUNNY   76  57  52 NW14G24   29.91R
TRAVERSE CITY  MOSUNNY   84  57  39 NW12      29.93S
$$
MIZ007>008-015-252300-
EASTERN UPPER MICHIGAN

CITY           SKY/WX    TMP DP  RH WIND       PRES   REMARKS
KINROSS        PTSUNNY   72  58  61 NW17G26   29.92S
MACKINAC ISLAN PTSUNNY   74  58  56 NW12G22   29.92R
S. S. MARIE    SUNNY     72  59  63 NW17G28   29.91S
$$
MIZ004>006-011>014-085-252300-
CENTRAL UPPER MICHIGAN

CITY           SKY/WX    TMP DP  RH WIND       PRES   REMARKS
ESCANABA       CLOUDY    84  57  39 N8        29.92S
MENOMINEE      SUNNY    N/A N/A N/A VRB7      29.95S
SAWYER-GWINN   MOSUNNY   81  55  41 NW9       29.96S
$$
MIZ001>003-009>011-084-252300-
WESTERN UPPER MICHIGAN

CITY           SKY/WX    TMP DP  RH WIND       PRES   REMARKS
IRON MOUNTAIN  SUNNY     83  55  38 N15       29.96S
HOUGHTON       SUNNY     77  58  51 W20G33    29.95F
COPPER HARBOR    N/A     78  58  49 NW10G22   29.92S
IRONWOOD       SUNNY     79  59  50 NW13      29.98S
$$

ABBREVIATIONS USED IN REMARKS
   TC - TEMPERATURE IN CELSIUS
  WCI - WIND CHILL INDEX
   HX - HEAT INDEX
  VSB - VISIBILITY





USA.gov is the U.S. government's official web portal to all federal, state and local government web resources and services.